Regional Weather Roundup
Issued by NWS Jackson, KY

Home | Current Version | Previous Version | Text Only | Print | Product List | Glossary On
Versions: 1 2 3 4 5 6 7 8 9 10 11 12 13 14 15 16 17 18 19 20 21 22 23 24 25 26 27 28
000
ASUS43 KJKL 291810
RWRJKL

EAST KENTUCKY HOURLY WEATHER ROUNDUP
NATIONAL WEATHER SERVICE JACKSON KY
200 PM EDT FRI APR 29 2016

NOTE: "FAIR" INDICATES FEW OR NO CLOUDS BELOW 12,000 FEET WITH
NO SIGNIFICANT WEATHER AND/OR OBSTRUCTIONS TO VISIBILITY.

* THESE REPORTS ARE NOT UNDER NWS QUALITY CONTROL AND MAY NOT
  REPORT WEATHER SUCH AS PRECIPITATION AND FOG.

KYZ079-080-083-085-087-088-110-112-115-119-120-291900
...EASTERN KENTUCKY...

CITY           SKY/WX    TMP DP  RH WIND       PRES   REMARKS
JACKSON        SUNNY     76  51  41 CALM      30.02S
6HR MIN TEMP:  59; 6HR MAX TEMP:  76;

LONDON         CLOUDY    76  48  37 NW3       30.03F
6HR MIN TEMP:  54; 6HR MAX TEMP:  76;

SOMERSET*      CLOUDY    72  50  46 W5        30.05S
MONTICELLO*    CLOUDY    75  55  49 VRB6      30.04F
6HR MIN TEMP:  54; 6HR MAX TEMP:  76;

WILLIAMSBURG*  CLOUDY    75  46  35 CALM      30.04S
MIDDLESBORO*   MOSUNNY   79  44  28 N10       30.03S
6HR MIN TEMP:  55; 6HR MAX TEMP:  79;

HARLAN APT*      N/A     77  39  25 W12       30.03S
HAZARD APT*    CLEAR     77  48  36 NW5       30.02S
BLACK MTN*       N/A     68  50  52 NW3         N/A
PIKE CO APT*     N/A     75  51  42 SW9       30.01S
BIG SANDY APT* CLEAR     75  50  41 SW5       30.00S
6HR MIN TEMP:  58; 6HR MAX TEMP:  75;

MOREHEAD APT*  PTCLDY    70  52  52 W8G15     30.04R
$$

KYZ035-036-041-042-044-050-067-078-099-291900
...CENTRAL KENTUCKY...

CITY           SKY/WX    TMP DP  RH WIND       PRES   REMARKS
MT STERLING*   MOSUNNY   70  54  56 NW10G16   30.06R
FLEMING/MASON* SUNNY     69  51  51 W14       30.03S
DANVILLE*      PTSUNNY   70  55  60 NW8       30.05F
RICHMOND*      PTSUNNY   70  54  56 W7        30.05R
LEXINGTON      CLOUDY    70  50  49 W9        30.04S
6HR MIN TEMP:  55; 6HR MAX TEMP:  70;

FRANKFORT      CLOUDY    68  46  45 VRB6      30.03S
6HR MIN TEMP:  55; 6HR MAX TEMP:  69;

LOUISVILLE     CLOUDY    69  46  43 CALM      30.03F
6HR MIN TEMP:  57; 6HR MAX TEMP:  71;

LEBANON*         N/A     68  54  60 CALM      30.05S
BOWLING GREEN  PTSUNNY   74  56  53 VRB6      30.02F
6HR MIN TEMP:  55; 6HR MAX TEMP:  74;

$$

KYZ091>093-OHZ055-061-077-WVZ005-015-034-035-042-291900
...SOUTHERN OHIO/WEST VIRGINIA...

CITY           SKY/WX    TMP DP  RH WIND       PRES   REMARKS
COVINGTON      PTSUNNY   67  48  50 SW7       30.03F
COLUMBUS       CLOUDY    57  48  72 W7        30.03R
DAYTON         PTSUNNY   59  51  75 N9        30.05F
WILMINGTON     PTSUNNY   61  50  67 N10G17    30.01F
HUNTINGTON       N/A     73  50  44 SW12G22   29.98F
CHARLESTON       N/A     74  49  41 W8G20     29.97F
PINEVILLE*       N/A     75  39  26 MISG      30.04S
BECKLEY          N/A     71  42  35 NW13G22   30.01F
$$

VAZ002-007-008-TNZ017-027-036-066-071-291900
...SOUTHWEST VIRGINIA/EAST TENNESSEE...

CITY           SKY/WX    TMP DP  RH WIND       PRES   REMARKS
WISE*            N/A     73  37  27 W8G17     30.07S
BRISTOL        MOSUNNY   77  49  37 W7        30.02F
MORRISTOWN*    CLEAR     77  50  38 CALM      30.02F
KNOXVILLE      CLOUDY    81  44  27 CALM      30.00F
OAK RIDGE      MOSUNNY   80  47  31 E7        30.02F
CROSSVILLE     MOSUNNY   77  40  26 NE8       30.04F
NASHVILLE      CLOUDY    80  53  39 NE3       30.00F
$$

...KEY TO REMARKS...
VSB - VISIBILITY IN MILES
WCI - WIND CHILL INDEX
HX  - HEAT INDEX

$$




USA.gov is the U.S. government's official web portal to all federal, state and local government web resources and services.